Weather History for Bellingham, WA

Change the Weather History Date:

Sunday, January 13, 2013

  Actual Average Record
Temperature  
Mean Temperature 27 °F 39 °F  
Max Temperature 35 °F 45 °F 64 °F (1968)
Min Temperature 19 °F 33 °F 15 °F (2007)
Degree Days  
Heating Degree Days 38 26  
Month to date heating degree days 344  
Cooling Degree Days 0 0  
Month to date cooling degree days 0  
Year to date cooling degree days 0  
Moisture  
Dew Point 22 °F    
Average Humidity 82    
Maximum Humidity 93    
Minimum Humidity 64    
Precipitation  
Precipitation 0.00 in 0.16 in 1.21 in (1996)
Month to date precipitation 1.98  
Year to date precipitation 1.98  
Sea Level Pressure  
Sea Level Pressure 30.50 in    
Wind  
Wind Speed 0 mph (NNE)    
Max Wind Speed 4 mph    
Max Gust Speed -    
Visibility 10 miles    
Events      
T = Trace of Precipitation, MM = Missing Value Source: NWS Daily Summary

Daily Weather History Graph

Daily Weather History Graph

Search for Another Location

Airport:

Trip Planner

Search our weather history database for the weather conditions in past years. The results will help you decide how hot, cold, wet, or windy it might be!

Date:

Astronomy

Jan. 13, 2013 Rise Set
Actual Time 7:59 AM PST 4:39 PM PST
Civil Twilight 7:23 AM PST 5:15 PM PST
Nautical Twilight 6:43 AM PST 5:54 PM PST
Astronomical Twilight 6:05 AM PST 6:32 PM PST
Moon 8:46 AM PST (1/13) 7:41 PM PST (1/13)
Length of Visible Light 9h 52m
Length of Day
8h 40m
Waxing Crescent, 6% of the Moon is Illuminated
Jan 13
Waxing Crescent
Jan 18
First Quarter
Jan 26
Full
Feb 3
Last Quarter
Feb 9
New

Hourly Weather History & Observations

Time (PST) Temp. Windchill Dew Point Humidity Pressure Visibility Wind Dir Wind Speed Gust Speed Precip Events Conditions
12:53 AM 21.0 °F - 18.0 °F 88% 30.48 in 10.0 mi Calm Calm - N/A   Clear
1:53 AM 19.9 °F - 17.1 °F 89% 30.48 in 10.0 mi Calm Calm - N/A   Clear
2:53 AM 19.9 °F - 18.0 °F 92% 30.49 in 10.0 mi Calm Calm - N/A   Clear
3:53 AM 19.9 °F - 18.0 °F 92% 30.48 in 10.0 mi Calm Calm - N/A   Clear
4:53 AM 21.0 °F - 18.0 °F 88% 30.48 in 10.0 mi Calm Calm - N/A   Clear
5:53 AM 19.9 °F - 18.0 °F 92% 30.48 in 10.0 mi Calm Calm - N/A   Clear
6:53 AM 19.4 °F - 17.6 °F 93% 30.46 in 10.0 mi Calm Calm - N/A   Clear
7:53 AM 19.9 °F - 18.0 °F 92% 30.51 in 10.0 mi Calm Calm - N/A   Clear
8:53 AM 21.9 °F - 19.9 °F 92% 30.52 in 10.0 mi Calm Calm - N/A   Clear
9:53 AM 26.1 °F - 21.9 °F 84% 30.53 in 10.0 mi Calm Calm - N/A   Clear
10:53 AM 30.9 °F - 27.0 °F 85% 30.51 in 10.0 mi Calm Calm - N/A   Clear
11:53 AM 33.1 °F 30.0 °F 27.0 °F 78% 30.51 in 10.0 mi North 3.5 mph - N/A   Clear
12:53 PM 34.0 °F - 27.0 °F 75% 30.49 in 10.0 mi Calm Calm - N/A   Clear
1:53 PM 34.0 °F - 25.0 °F 70% 30.48 in 10.0 mi Calm Calm - N/A   Clear
2:53 PM 35.1 °F - 24.1 °F 64% 30.48 in 10.0 mi Calm Calm - N/A   Clear
3:53 PM 34.0 °F - 24.1 °F 67% 30.49 in 10.0 mi Calm Calm - N/A   Overcast
4:53 PM 32.0 °F 28.7 °F 24.1 °F 73% 30.49 in 10.0 mi NNE 3.5 mph - N/A   Overcast
5:53 PM 32.0 °F - 25.0 °F 75% 30.49 in 10.0 mi Calm Calm - N/A   Overcast
6:53 PM 32.0 °F - 25.0 °F 75% 30.49 in 10.0 mi Calm Calm - N/A   Overcast
7:53 PM 30.9 °F 27.5 °F 25.0 °F 79% 30.52 in 10.0 mi NE 3.5 mph - N/A   Overcast
8:53 PM 30.9 °F - 26.1 °F 82% 30.51 in 10.0 mi Calm Calm - N/A   Overcast
9:53 PM 32.0 °F - 24.8 °F 75% 30.49 in 10.0 mi Calm Calm - N/A   Overcast
10:53 PM 30.9 °F - 26.1 °F 82% 30.51 in 10.0 mi Calm Calm - N/A   Overcast
11:53 PM 30.9 °F - 25.0 °F 79% 30.51 in 10.0 mi Calm Calm - N/A   Overcast